Regional Weather Roundup
Issued by NWS

Home | Current Version | Previous Version | Graphics & Text | Print | Product List | Glossary On
Versions: 1 2 3 4 5 6 7 8 9 10 11 12 13 14 15 16 17 18 19 20 21 22 23 24 25 26 27 28 29 30 31 32 33 34 35 36 37 38 39 40 41 42 43 44 45 46 47 48 49 50
000
ASUS43 KLMK 262302
RWRKY
KENTUCKY REGIONAL WEATHER ROUNDUP
NATIONAL WEATHER SERVICE LOUISVILLE KY
700 PM EDT SUN MAR 26 2017

NOTE "FAIR" INDICATES FEW OR NO CLOUDS BELOW 12,000 FEET
WITH NO SIGNIFICANT WEATHER AND/OR OBSTRUCTIONS TO VISIBILITY.

KYZ001>023-026-027-061>063-070>075-270000-
WESTERN AND SOUTH CENTRAL KENTUCKY

CITY           SKY/WX    TMP DP  RH WIND       PRES   REMARKS
PADUCAH        MOSUNNY   65  51  60 W8        29.94R
HENDERSON      SUNNY     64  48  55 SW10      29.93R
OWENSBORO      SUNNY     66  52  60 W15       29.93R
HOPKINSVILLE   MOSUNNY   69  52  54 W15       29.93R
BOWLING GREEN  PTSUNNY   71  51  49 SW14      29.93R
GLASGOW        NOT AVBL
$$

KYZ024-025-028>034-038-045-046-053-270000-
NORTH CENTRAL KENTUCKY

CITY           SKY/WX    TMP DP  RH WIND       PRES   REMARKS
LOUISVILLE/SDF PTSUNNY   68  53  58 W10       29.91R
LOUISVILLE/LOU PTSUNNY   67  54  63 W12       29.91R
FORT KNOX      CLOUDY    66  53  62 SW9       29.90R
$$

KYZ035>037-039>044-047>052-055>060-089>105-270000-
NORTHEAST KENTUCKY

CITY           SKY/WX    TMP DP  RH WIND       PRES   REMARKS
LEXINGTON      CLOUDY    66  53  63 SW12G22   29.94R
COVINGTON      LGT RAIN  58  55  90 SW5       29.91R
FRANKFORT      CLOUDY    65  56  72 SW7       29.91S
$$

KYZ054-064>069-076>088-106>120-270000-
SOUTHEAST KENTUCKY

CITY           SKY/WX    TMP DP  RH WIND       PRES   REMARKS
JACKSON        LGT RAIN  60  57  89 CALM      29.98F
LONDON         PTCLDY    63  57  81 SW5       29.98S
SOMERSET       NOT AVBL
MIDDLESBORO    CLEAR     69  54  58 S8        29.99S
MONTICELLO     MOCLDY    68  56  65 SW14G22   29.99R
$$





USA.gov is the U.S. government's official web portal to all federal, state and local government web resources and services.